Eelde, Netherlands

9:45 AM CEST on July 28, 2017 (GMT +0200)
Eelde

Weather History for EHGG - January, 2014

Change the Weather History Date:

Tuesday, January 14, 2014

  Actual Average Record
Temperature  
Mean Temperature 40 °F -  
Max Temperature 45 °F 39 °F 51 °F (2007)
Min Temperature 34 °F 29 °F 19 °F (2013)
Degree Days  
Heating Degree Days 26    
Moisture  
Dew Point 38 °F    
Average Humidity 91    
Maximum Humidity 100    
Minimum Humidity 79    
Precipitation  
Precipitation 0.00 in 0.07 in - ()
Sea Level Pressure  
Sea Level Pressure 29.70 in    
Wind  
Wind Speed 5 mph ()    
Max Wind Speed 9 mph    
Max Gust Speed -    
Visibility 5.3 miles    
Events Rain    
Averages and records for this station are not official NWS values.
T = Trace of Precipitation, MM = Missing Value Source: Averaged Metar Reports

Daily Weather History Graph

Daily Weather History Graph

Search for Another Location

Airport or City:

Trip Planner

Search our weather history database for the weather conditions in past years. The results will help you decide how hot, cold, wet, or windy it might be!

Date:

Astronomy

Jan. 14, 2014 Rise Set
Actual Time 8:40 AM CET 4:44 PM CET
Civil Twilight 8:00 AM CET 5:25 PM CET
Nautical Twilight 7:16 AM CET 6:09 PM CET
Astronomical Twilight 6:35 AM CET 6:50 PM CET
Moon 3:40 PM CET (1/14) 7:00 AM CET (1/14)
Length of Visible Light 9h 25m
Length of Day
8h 03m
Waxing Gibbous, 97% of the Moon is Illuminated
Jan 14
Waxing Gibbous
Jan 16
Full
Jan 24
Last Quarter
Jan 30
New
Feb 6
First Quarter

Hourly Weather History & Observations

Time (CET) Temp. Windchill Dew Point Humidity Pressure Visibility Wind Dir Wind Speed Gust Speed Precip Events Conditions
12:00 AM 38 °F - 37 °F 93% 29.75 in 3 mi South 4.5 mph - -   Mist
12:25 AM 37.4 °F 32.8 °F 35.6 °F 93% 29.74 in 3.1 mi SSE 5.8 mph - N/A   Mist
12:55 AM 37.4 °F 32.8 °F 35.6 °F 93% 29.74 in 2.5 mi SSE 5.8 mph - N/A   Mist
1:00 AM 37 °F - 36 °F 95% 29.74 in 3 mi SSE 6.7 mph - -   Mist
1:25 AM 37.4 °F 32.8 °F 35.6 °F 93% 29.71 in 2.8 mi SSE 5.8 mph - N/A   Mist
1:55 AM 37.4 °F 33.8 °F 35.6 °F 93% 29.71 in - SE 4.6 mph - N/A   Mist
2:00 AM 36 °F - 36 °F 99% 29.72 in 2 mi SE 4.5 mph - -   Mist
2:25 AM 37.4 °F 32.1 °F 35.6 °F 93% 29.71 in - SSE 6.9 mph - N/A   Mist
2:55 AM 37.4 °F 31.4 °F 35.6 °F 93% 29.71 in 3.1 mi SSE 8.1 mph - N/A   Mist
3:00 AM 37 °F - 36 °F 97% 29.72 in 3 mi SSE 8.9 mph - -   Mist
3:25 AM 37.4 °F 31.4 °F 37.4 °F 100% 29.71 in 3.7 mi SE 8.1 mph - N/A   Mostly Cloudy
3:55 AM 37.4 °F 32.8 °F 35.6 °F 93% 29.71 in 4.3 mi SE 5.8 mph - N/A   Unknown
4:00 AM 37 °F - 36 °F 93% 29.71 in 4 mi SE 6.7 mph - -   Mist
4:25 AM 37.4 °F 32.1 °F 35.6 °F 93% 29.68 in 3.7 mi SE 6.9 mph - N/A   Mostly Cloudy
4:55 AM 37.4 °F 32.8 °F 35.6 °F 93% 29.68 in 4.3 mi SE 5.8 mph - N/A   Unknown
5:00 AM 36 °F - 36 °F 99% 29.70 in 4 mi SE 4.5 mph - -   Mist
5:25 AM 35.6 °F 31.7 °F 35.6 °F 100% 29.68 in 3.1 mi ESE 4.6 mph - N/A   Mist
5:55 AM 33.8 °F 28.6 °F 33.8 °F 100% 29.68 in - ESE 5.8 mph - N/A   Mist
6:00 AM 35 °F - 34 °F 95% 29.70 in 2 mi ESE 4.5 mph - -   Mist
6:25 AM 33.8 °F 29.6 °F 33.8 °F 100% 29.68 in - ESE 4.6 mph - N/A   Mist
6:55 AM 35.6 °F 31.7 °F 33.8 °F 93% 29.68 in - ESE 4.6 mph - N/A   Mostly Cloudy
7:00 AM 35 °F - 35 °F 99% 29.69 in 3 mi ESE 4.5 mph - -   Mist
7:25 AM 35.6 °F 31.7 °F 35.6 °F 100% 29.68 in 3.7 mi SE 4.6 mph - N/A   Overcast
7:55 AM 37.4 °F 32.8 °F 37.4 °F 100% 29.68 in 4.3 mi ESE 5.8 mph - N/A   Overcast
8:00 AM 38 °F - 36 °F 92% 29.70 in 4 mi ESE 6.7 mph - -   Mist
8:25 AM 37.4 °F 32.8 °F 35.6 °F 93% 29.68 in 4.3 mi SE 5.8 mph - N/A   Mostly Cloudy
8:55 AM 35.6 °F 31.7 °F 35.6 °F 100% 29.68 in 3.1 mi ESE 4.6 mph - N/A   Mostly Cloudy
9:00 AM 36 °F - 35 °F 94% 29.70 in 3 mi ESE 4.5 mph - -   Mist
9:25 AM 35.6 °F 31.7 °F 35.6 °F 100% 29.68 in - ESE 4.6 mph - N/A   Mist
9:55 AM 37.4 °F 33.8 °F 37.4 °F 100% 29.68 in 3.1 mi SE 4.6 mph - N/A   Mist
10:00 AM 38 °F - 37 °F 95% 29.71 in 4 mi SE 4.5 mph - -   Mist
10:25 AM 39.2 °F 35.9 °F 37.4 °F 93% 29.68 in 4.3 mi SE 4.6 mph - N/A   Unknown
10:55 AM 39.2 °F 34.2 °F 39.2 °F 100% 29.68 in 4.3 mi East 6.9 mph - N/A   Unknown
11:00 AM 40 °F - 38 °F 92% 29.70 in 4 mi ESE 6.7 mph - -   Mist
11:25 AM 41.0 °F 37.1 °F 39.2 °F 93% 29.68 in 5.6 mi SE 5.8 mph - N/A   Unknown
11:55 AM 41.0 °F 37.1 °F 39.2 °F 93% 29.68 in 6.2 mi SE 5.8 mph - N/A   Unknown
12:00 PM 41 °F - 39 °F 89% 29.70 in 6 mi SE 4.5 mph - -  
12:25 PM 41.0 °F 38.0 °F 39.2 °F 93% 29.68 in 6.2 mi ESE 4.6 mph - N/A   Unknown
12:55 PM 41.0 °F 37.1 °F 39.2 °F 93% 29.68 in 6.2 mi ESE 5.8 mph - N/A   Unknown
1:00 PM 42 °F - 39 °F 87% 29.69 in 6 mi ESE 4.5 mph - -   Partly Cloudy
1:25 PM 42.8 °F 39.3 °F 39.2 °F 87% 29.68 in 6.2 mi ESE 5.8 mph - N/A   Unknown
1:55 PM 42.8 °F 39.3 °F 41.0 °F 93% 29.68 in 6.2 mi ESE 5.8 mph - N/A   Unknown
2:00 PM 44 °F - 41 °F 83% 29.68 in 7 mi ESE 6.7 mph - -   Partly Cloudy
2:25 PM 44.6 °F 41.4 °F 41.0 °F 87% 29.68 in 6.2 mi ESE 5.8 mph - N/A   Unknown
2:55 PM 44.6 °F 41.4 °F 41.0 °F 87% 29.68 in 6.2 mi East 5.8 mph - N/A   Unknown
3:00 PM 45 °F - 41 °F 82% 29.68 in 8 mi East 4.5 mph - -   Mostly Cloudy
3:25 PM 44.6 °F 40.7 °F 41.0 °F 87% 29.68 in 6.2 mi ESE 6.9 mph - N/A   Unknown
3:55 PM 44.6 °F 40.7 °F 41.0 °F 87% 29.68 in 6.2 mi ESE 6.9 mph - N/A   Unknown
4:00 PM 45 °F - 41 °F 79% 29.70 in 9 mi ESE 6.7 mph - -   Overcast
4:25 PM 44.6 °F 42.2 °F 41.0 °F 87% 29.68 in 6.2 mi ESE 4.6 mph - N/A   Mostly Cloudy
4:55 PM 44.6 °F 43.1 °F 39.2 °F 81% 29.68 in 6.2 mi SE 3.5 mph - N/A   Overcast
5:00 PM 44 °F - 40 °F 80% 29.71 in 9 mi ESE 2.2 mph - -   Overcast
5:25 PM 42.8 °F - 39.2 °F 87% 29.71 in 6.2 mi ESE 2.3 mph - N/A   Overcast
5:55 PM 42.8 °F 40.1 °F 39.2 °F 87% 29.71 in 6.2 mi East 4.6 mph - N/A   Mostly Cloudy
6:00 PM 42 °F - 39 °F 87% 29.72 in 7 mi ESE 4.5 mph - -   Mostly Cloudy
6:25 PM 42.8 °F 40.1 °F 39.2 °F 87% 29.71 in 6.2 mi ESE 4.6 mph - N/A   Overcast
6:55 PM 42.8 °F 40.1 °F 39.2 °F 87% 29.71 in 6.2 mi ESE 4.6 mph - N/A   Overcast
7:00 PM 42 °F - 40 °F 88% 29.73 in 6 mi ESE 4.5 mph - - Rain Light Drizzle
7:25 PM 42.8 °F 39.3 °F 39.2 °F 87% 29.71 in 6.2 mi ESE 5.8 mph - N/A   Mostly Cloudy
7:55 PM 42.8 °F 39.3 °F 39.2 °F 87% 29.71 in 6.2 mi ESE 5.8 mph - N/A   Partly Cloudy
8:00 PM 42 °F - 39 °F 87% 29.73 in 6 mi ESE 6.7 mph - - Rain Drizzle
8:25 PM 42.8 °F 39.3 °F 39.2 °F 87% 29.71 in 6.2 mi SE 5.8 mph - N/A   Partly Cloudy
8:55 PM 42.8 °F 39.3 °F 39.2 °F 87% 29.71 in 6.2 mi SE 5.8 mph - N/A   Mostly Cloudy
9:00 PM 43 °F - 39 °F 79% 29.74 in 9 mi SE 6.7 mph - -   Overcast
9:25 PM 41.0 °F 36.4 °F 37.4 °F 87% 29.71 in 6.2 mi SSE 6.9 mph - N/A   Scattered Clouds
9:55 PM 41.0 °F 37.1 °F 39.2 °F 93% 29.71 in 6.2 mi SSE 5.8 mph - N/A   Unknown
10:00 PM 42 °F - 38 °F 83% 29.74 in 9 mi SSE 6.7 mph - -   Overcast
10:25 PM 41.0 °F 38.0 °F 39.2 °F 93% 29.74 in 6.2 mi SSE 4.6 mph - N/A   Unknown
10:55 PM 41.0 °F 38.0 °F 37.4 °F 87% 29.74 in 6.2 mi South 4.6 mph - N/A   Overcast
11:00 PM 41 °F - 38 °F 87% 29.75 in 8 mi South 4.5 mph - -   Overcast
11:25 PM 41.0 °F 38.0 °F 39.2 °F 93% 29.74 in 6.2 mi South 4.6 mph - N/A   Overcast
11:55 PM 41.0 °F 38.0 °F 37.4 °F 87% 29.71 in 6.2 mi SE 4.6 mph - N/A   Scattered Clouds